Wetterdaten: Donnerstag, 01.10.2015
Datum Zeit Auen-Temp. Temp gefhlt Luftfeuchte Luftdruck Regen Wind Richtung Richtung Taupunkt Windben
01.10.2015 00:00 2,5 C 2,0 C 78 % 1025,0 hPa 0,0 mm 1,3 km/h (1 Bft) S-SO 157 -0,9 C 4,1 km/h (1 Bft)
01.10.2015 00:05 2,5 C 2,0 C 78 % 1025,0 hPa 0,0 mm 0,8 km/h (0 Bft) S-SO 157 -0,9 C 0,0 km/h (0 Bft)
01.10.2015 00:10 2,4 C 1,9 C 78 % 1025,0 hPa 0,0 mm 0,5 km/h (0 Bft) O-SO 112 -1,0 C 0,0 km/h (0 Bft)
01.10.2015 00:15 1,9 C 1,4 C 78 % 1024,7 hPa 0,0 mm 0,0 km/h (0 Bft) O-NO 67 -1,5 C 0,0 km/h (0 Bft)
01.10.2015 00:20 1,4 C 1,0 C 78 % 1024,7 hPa 0,0 mm 0,0 km/h (0 Bft) S-SO 157 -2,0 C 0,0 km/h (0 Bft)
01.10.2015 00:25 1,7 C 1,1 C 79 % 1024,7 hPa 0,0 mm 0,0 km/h (0 Bft) S-SO 157 -1,5 C 0,0 km/h (0 Bft)
01.10.2015 00:30 1,7 C 1,1 C 79 % 1024,7 hPa 0,0 mm 0,0 km/h (0 Bft) S 180 -1,5 C 0,0 km/h (0 Bft)
01.10.2015 00:35 1,7 C 1,1 C 80 % 1024,5 hPa 0,0 mm 0,0 km/h (0 Bft) O-SO 112 -1,4 C 0,0 km/h (0 Bft)
01.10.2015 00:40 1,0 C 0,5 C 79 % 1024,5 hPa 0,0 mm 0,0 km/h (0 Bft) S 180 -2,2 C 0,0 km/h (0 Bft)
01.10.2015 00:45 0,8 C 0,3 C 79 % 1024,5 hPa 0,0 mm 0,3 km/h (0 Bft) S 180 -2,4 C 3,4 km/h (1 Bft)
01.10.2015 00:50 1,6 C 0,9 C 81 % 1024,5 hPa 0,0 mm 0,8 km/h (0 Bft) SO 135 -1,3 C 4,1 km/h (1 Bft)
01.10.2015 00:55 1,6 C 1,0 C 81 % 1024,5 hPa 0,0 mm 0,8 km/h (0 Bft) S-SO 157 -1,3 C 0,0 km/h (0 Bft)
01.10.2015 01:00 1,7 C 1,1 C 81 % 1024,5 hPa 0,0 mm 0,5 km/h (0 Bft) O 90 -1,2 C 7,3 km/h (2 Bft)
01.10.2015 01:05 1,5 C 1,0 C 81 % 1024,5 hPa 0,0 mm 0,8 km/h (0 Bft) O 90 -1,4 C 5,2 km/h (1 Bft)
01.10.2015 01:10 1,7 C 1,3 C 82 % 1024,5 hPa 0,0 mm 1,6 km/h (1 Bft) O-SO 112 -1,0 C 7,8 km/h (2 Bft)
01.10.2015 01:15 1,8 C 1,4 C 79 % 1024,2 hPa 0,0 mm 2,3 km/h (1 Bft) O-NO 67 -1,4 C 0,0 km/h (0 Bft)
01.10.2015 01:20 1,8 C 1,4 C 83 % 1024,2 hPa 0,0 mm 1,8 km/h (1 Bft) O-NO 67 -0,8 C 6,0 km/h (2 Bft)
01.10.2015 01:25 1,7 C 1,3 C 83 % 1024,2 hPa 0,0 mm 1,3 km/h (1 Bft) SO 135 -0,9 C 0,0 km/h (0 Bft)
01.10.2015 01:30 1,9 C 1,4 C 83 % 1024,2 hPa 0,0 mm 1,0 km/h (0 Bft) O-NO 67 -0,7 C 0,0 km/h (0 Bft)
01.10.2015 01:35 1,9 C 1,4 C 83 % 1023,9 hPa 0,0 mm 1,0 km/h (0 Bft) S 180 -0,7 C 4,9 km/h (1 Bft)
01.10.2015 01:40 1,8 C 1,3 C 83 % 1023,9 hPa 0,0 mm 1,3 km/h (1 Bft) S 180 -0,8 C 4,4 km/h (1 Bft)
01.10.2015 01:45 1,7 C 1,3 C 83 % 1023,9 hPa 0,0 mm 1,3 km/h (1 Bft) S-SO 157 -0,9 C 0,0 km/h (0 Bft)
01.10.2015 01:50 1,6 C 1,2 C 82 % 1023,9 hPa 0,0 mm 1,3 km/h (1 Bft) S-SO 157 -1,1 C 4,7 km/h (1 Bft)
01.10.2015 01:55 1,5 C 1,1 C 82 % 1023,7 hPa 0,0 mm 1,0 km/h (0 Bft) SO 135 -1,2 C 0,0 km/h (0 Bft)
01.10.2015 02:00 1,5 C 1,1 C 83 % 1023,7 hPa 0,0 mm 0,5 km/h (0 Bft) O-NO 67 -1,1 C 0,0 km/h (0 Bft)
01.10.2015 02:05 1,4 C 1,0 C 83 % 1023,7 hPa 0,0 mm 0,3 km/h (0 Bft) O 90 -1,2 C 0,0 km/h (0 Bft)
01.10.2015 02:07 0,9 C 0,5 C 83 % 1023,7 hPa 0,0 mm 0,0 km/h (0 Bft) O 90 -1,7 C 0,0 km/h (0 Bft)
01.10.2015 02:10 0,9 C 0,5 C 83 % 1023,7 hPa 0,0 mm 0,0 km/h (0 Bft) O 90 -1,7 C 0,0 km/h (0 Bft)
01.10.2015 02:15 0,9 C 0,4 C 83 % 1023,8 hPa 0,0 mm 0,0 km/h (0 Bft) SO 135 -1,7 C 0,0 km/h (0 Bft)
01.10.2015 02:20 0,6 C 0,2 C 83 % 1023,8 hPa 0,0 mm 0,0 km/h (0 Bft) SO 135 -1,9 C 0,0 km/h (0 Bft)
01.10.2015 02:25 0,3 C -0,1 C 82 % 1023,8 hPa 0,0 mm 0,0 km/h (0 Bft) SO 135 -2,4 C 0,0 km/h (0 Bft)
01.10.2015 02:30 0,3 C -0,2 C 83 % 1023,8 hPa 0,0 mm 0,0 km/h (0 Bft) S-SO 157 -2,2 C 0,0 km/h (0 Bft)
01.10.2015 02:35 0,6 C 0,1 C 80 % 1023,6 hPa 0,0 mm 0,0 km/h (0 Bft) O-SO 112 -2,4 C 0,0 km/h (0 Bft)
01.10.2015 02:40 0,9 C 0,3 C 85 % 1023,6 hPa 0,0 mm 0,5 km/h (0 Bft) S-SO 157 -1,3 C 3,4 km/h (1 Bft)
01.10.2015 02:45 1,0 C 0,4 C 85 % 1023,6 hPa 0,0 mm 0,5 km/h (0 Bft) SO 135 -1,2 C 2,6 km/h (1 Bft)
01.10.2015 02:50 1,0 C 0,5 C 85 % 1023,6 hPa 0,0 mm 0,5 km/h (0 Bft) S-SO 157 -1,2 C 0,0 km/h (0 Bft)
01.10.2015 02:55 0,9 C 0,4 C 86 % 1023,2 hPa 0,0 mm 0,3 km/h (0 Bft) S-SO 157 -1,2 C 0,0 km/h (0 Bft)
01.10.2015 03:00 0,2 C -0,1 C 85 % 1023,2 hPa 0,0 mm 0,3 km/h (0 Bft) SO 135 -2,0 C 0,0 km/h (0 Bft)
01.10.2015 03:05 -0,3 C -0,6 C 84 % 1023,2 hPa 0,0 mm 0,0 km/h (0 Bft) SO 135 -2,7 C 0,0 km/h (0 Bft)
01.10.2015 03:10 -0,4 C -0,8 C 84 % 1023,2 hPa 0,0 mm 0,0 km/h (0 Bft) SO 135 -2,8 C 0,0 km/h (0 Bft)
01.10.2015 03:15 -0,1 C -0,6 C 84 % 1023,2 hPa 0,0 mm 0,3 km/h (0 Bft) S-SO 157 -2,5 C 0,0 km/h (0 Bft)
01.10.2015 03:20 0,3 C -0,2 C 86 % 1023,2 hPa 0,0 mm 1,0 km/h (0 Bft) S-SO 157 -1,8 C 0,0 km/h (0 Bft)
01.10.2015 03:25 0,1 C -0,4 C 86 % 1023,2 hPa 0,0 mm 1,0 km/h (0 Bft) S 180 -2,0 C 0,0 km/h (0 Bft)
01.10.2015 03:30 0,2 C -0,3 C 86 % 1023,2 hPa 0,0 mm 0,3 km/h (0 Bft) SO 135 -1,9 C 0,0 km/h (0 Bft)
01.10.2015 03:35 -0,1 C -0,6 C 86 % 1022,9 hPa 0,0 mm 0,3 km/h (0 Bft) O-SO 112 -2,2 C 0,0 km/h (0 Bft)
01.10.2015 03:40 -0,4 C -0,8 C 86 % 1022,9 hPa 0,0 mm 0,0 km/h (0 Bft) O-SO 112 -2,4 C 0,0 km/h (0 Bft)
01.10.2015 03:45 0,0 C -0,5 C 83 % 1022,9 hPa 0,0 mm 0,0 km/h (0 Bft) S-SO 157 -2,5 C 0,0 km/h (0 Bft)
01.10.2015 03:50 0,1 C -0,4 C 87 % 1022,9 hPa 0,0 mm 0,3 km/h (0 Bft) S 180 -1,8 C 0,0 km/h (0 Bft)
01.10.2015 03:55 -0,1 C -0,5 C 87 % 1022,7 hPa 0,0 mm 0,3 km/h (0 Bft) SO 135 -2,0 C 0,0 km/h (0 Bft)
01.10.2015 04:00 -0,6 C -1,0 C 87 % 1022,7 hPa 0,0 mm 0,5 km/h (0 Bft) W-SW 247 -2,5 C 0,0 km/h (0 Bft)
01.10.2015 04:05 -1,1 C -1,4 C 86 % 1022,7 hPa 0,0 mm 0,3 km/h (0 Bft) S-SW 202 -3,1 C 0,0 km/h (0 Bft)
01.10.2015 04:10 -1,1 C -1,5 C 86 % 1022,7 hPa 0,0 mm 0,3 km/h (0 Bft) O 90 -3,1 C 0,0 km/h (0 Bft)
01.10.2015 04:15 -1,2 C -1,6 C 86 % 1022,6 hPa 0,0 mm 0,3 km/h (0 Bft) O-NO 67 -3,2 C 0,0 km/h (0 Bft)
01.10.2015 04:20 -0,6 C -0,8 C 83 % 1022,6 hPa 0,0 mm 1,3 km/h (1 Bft) O-SO 112 -3,1 C 5,2 km/h (1 Bft)
01.10.2015 04:25 0,0 C -0,5 C 88 % 1022,6 hPa 0,0 mm 1,8 km/h (1 Bft) O-SO 112 -1,7 C 0,0 km/h (0 Bft)
01.10.2015 04:30 -0,4 C -0,7 C 88 % 1022,6 hPa 0,0 mm 1,6 km/h (1 Bft) NW 315 -2,1 C 2,8 km/h (1 Bft)
01.10.2015 04:35 -0,6 C -0,9 C 88 % 1022,5 hPa 0,0 mm 0,8 km/h (0 Bft) W 270 -2,3 C 3,6 km/h (1 Bft)
01.10.2015 04:40 -1,1 C -1,3 C 87 % 1022,5 hPa 0,0 mm 0,3 km/h (0 Bft) W-NW 292 -3,0 C 0,0 km/h (0 Bft)
01.10.2015 04:45 -1,1 C -1,4 C 87 % 1022,5 hPa 0,0 mm 0,3 km/h (0 Bft) W-NW 292 -3,0 C 0,0 km/h (0 Bft)
01.10.2015 04:50 -0,8 C -1,2 C 84 % 1022,5 hPa 0,0 mm 0,3 km/h (0 Bft) O-SO 112 -3,2 C 0,0 km/h (0 Bft)
01.10.2015 04:55 -0,6 C -0,9 C 84 % 1022,5 hPa 0,0 mm 0,5 km/h (0 Bft) O-NO 67 -3,0 C 0,0 km/h (0 Bft)
01.10.2015 05:00 -0,7 C -1,0 C 88 % 1022,5 hPa 0,0 mm 0,3 km/h (0 Bft) NW 315 -2,4 C 0,0 km/h (0 Bft)
01.10.2015 05:05 -1,4 C -1,6 C 87 % 1022,5 hPa 0,0 mm 0,0 km/h (0 Bft) NW 315 -3,3 C 0,0 km/h (0 Bft)
01.10.2015 05:10 -1,6 C -1,9 C 87 % 1022,5 hPa 0,0 mm 0,0 km/h (0 Bft) N-NW 337 -3,5 C 0,0 km/h (0 Bft)
01.10.2015 05:15 -1,6 C -2,0 C 87 % 1022,6 hPa 0,0 mm 0,0 km/h (0 Bft) NW 315 -3,5 C 0,0 km/h (0 Bft)
01.10.2015 05:20 -1,2 C -1,6 C 88 % 1022,6 hPa 0,0 mm 0,0 km/h (0 Bft) N-NO 22 -2,9 C 0,0 km/h (0 Bft)
01.10.2015 05:25 -0,8 C -1,2 C 84 % 1022,6 hPa 0,0 mm 0,5 km/h (0 Bft) S-SO 157 -3,2 C 2,6 km/h (1 Bft)
01.10.2015 05:30 -0,3 C -0,7 C 89 % 1022,6 hPa 0,0 mm 1,0 km/h (0 Bft) S-SO 157 -1,9 C 0,0 km/h (0 Bft)
01.10.2015 05:35 0,1 C -0,3 C 89 % 1022,5 hPa 0,0 mm 1,8 km/h (1 Bft) O-NO 67 -1,5 C 0,0 km/h (0 Bft)
01.10.2015 05:40 -0,1 C -0,4 C 89 % 1022,5 hPa 0,0 mm 1,6 km/h (1 Bft) O 90 -1,7 C 9,3 km/h (2 Bft)
01.10.2015 05:45 -0,3 C -0,6 C 89 % 1022,5 hPa 0,0 mm 0,5 km/h (0 Bft) O-SO 112 -1,9 C 0,0 km/h (0 Bft)
01.10.2015 05:50 -0,3 C -0,6 C 89 % 1022,5 hPa 0,0 mm 0,5 km/h (0 Bft) S-SW 202 -1,9 C 0,0 km/h (0 Bft)
01.10.2015 05:55 -0,3 C -0,6 C 89 % 1022,2 hPa 0,0 mm 0,5 km/h (0 Bft) S-SO 157 -1,9 C 0,0 km/h (0 Bft)
01.10.2015 06:00 -0,1 C -0,5 C 90 % 1022,2 hPa 0,0 mm 1,3 km/h (1 Bft) O-NO 67 -1,5 C 4,7 km/h (1 Bft)
01.10.2015 06:05 -0,1 C -0,4 C 90 % 1022,2 hPa 0,0 mm 2,3 km/h (1 Bft) O-NO 67 -1,5 C 6,0 km/h (2 Bft)
01.10.2015 06:10 -0,1 C -0,4 C 90 % 1022,2 hPa 0,0 mm 2,8 km/h (1 Bft) O-SO 112 -1,5 C 4,1 km/h (1 Bft)
01.10.2015 06:15 -0,2 C -0,5 C 90 % 1022,2 hPa 0,0 mm 1,8 km/h (1 Bft) S-SO 157 -1,6 C 0,0 km/h (0 Bft)
01.10.2015 06:20 -0,2 C -0,5 C 90 % 1022,2 hPa 0,0 mm 1,0 km/h (0 Bft) SO 135 -1,6 C 0,0 km/h (0 Bft)
01.10.2015 06:25 -0,4 C -0,7 C 90 % 1022,2 hPa 0,0 mm 0,5 km/h (0 Bft) SO 135 -1,8 C 0,0 km/h (0 Bft)
01.10.2015 06:30 -0,5 C -0,9 C 90 % 1022,2 hPa 0,0 mm 0,3 km/h (0 Bft) O 90 -1,9 C 7,8 km/h (2 Bft)
01.10.2015 06:35 -0,3 C -0,7 C 90 % 1022,3 hPa 0,0 mm 1,0 km/h (0 Bft) NO 45 -1,7 C 0,0 km/h (0 Bft)
01.10.2015 06:40 -0,3 C -0,7 C 90 % 1022,3 hPa 0,0 mm 1,0 km/h (0 Bft) W-SW 247 -1,7 C 0,0 km/h (0 Bft)
01.10.2015 06:45 -0,6 C -0,9 C 90 % 1022,3 hPa 0,0 mm 0,8 km/h (0 Bft) N-NW 337 -2,0 C 3,4 km/h (1 Bft)
01.10.2015 06:50 -0,7 C -1,1 C 90 % 1022,3 hPa 0,0 mm 0,5 km/h (0 Bft) N-NW 337 -2,1 C 0,0 km/h (0 Bft)
01.10.2015 06:55 -0,8 C -1,2 C 90 % 1022,1 hPa 0,0 mm 0,3 km/h (0 Bft) N-NW 337 -2,2 C 0,0 km/h (0 Bft)
01.10.2015 07:00 -1,0 C -1,4 C 90 % 1022,1 hPa 0,0 mm 0,0 km/h (0 Bft) N-NW 337 -2,4 C 0,0 km/h (0 Bft)
01.10.2015 07:05 -1,2 C -1,6 C 89 % 1022,1 hPa 0,0 mm 0,0 km/h (0 Bft) N-NW 337 -2,8 C 0,0 km/h (0 Bft)
01.10.2015 07:10 -1,4 C -1,8 C 89 % 1022,1 hPa 0,0 mm 0,0 km/h (0 Bft) N-NW 337 -3,0 C 0,0 km/h (0 Bft)
01.10.2015 07:15 -1,4 C -1,8 C 89 % 1022,2 hPa 0,0 mm 0,0 km/h (0 Bft) N-NW 337 -3,0 C 0,0 km/h (0 Bft)
01.10.2015 07:20 -1,4 C -1,8 C 89 % 1022,2 hPa 0,0 mm 0,0 km/h (0 Bft) NW 315 -3,0 C 0,0 km/h (0 Bft)
01.10.2015 07:25 -1,7 C -2,0 C 89 % 1022,2 hPa 0,0 mm 0,0 km/h (0 Bft) NW 315 -3,3 C 0,0 km/h (0 Bft)
01.10.2015 07:30 -1,6 C -1,9 C 89 % 1022,2 hPa 0,0 mm 0,0 km/h (0 Bft) NW 315 -3,2 C 0,0 km/h (0 Bft)
01.10.2015 07:35 -1,5 C -1,8 C 89 % 1022,1 hPa 0,0 mm 0,0 km/h (0 Bft) N 360 -3,1 C 0,0 km/h (0 Bft)
01.10.2015 07:40 -1,4 C -1,6 C 85 % 1022,1 hPa 0,0 mm 0,0 km/h (0 Bft) NW 315 -3,6 C 0,0 km/h (0 Bft)
01.10.2015 07:45 -1,3 C -1,4 C 85 % 1022,1 hPa 0,0 mm 0,0 km/h (0 Bft) NW 315 -3,5 C 0,0 km/h (0 Bft)
01.10.2015 07:50 -0,9 C -1,1 C 85 % 1022,1 hPa 0,0 mm 0,5 km/h (0 Bft) W-SW 247 -3,1 C 0,0 km/h (0 Bft)
01.10.2015 07:55 -0,8 C -0,9 C 85 % 1022,1 hPa 0,0 mm 0,5 km/h (0 Bft) W-SW 247 -3,0 C 0,0 km/h (0 Bft)
01.10.2015 08:00 -0,8 C -0,8 C 86 % 1022,1 hPa 0,0 mm 0,0 km/h (0 Bft) W-SW 247 -2,8 C 0,0 km/h (0 Bft)
01.10.2015 08:05 -0,7 C -0,6 C 86 % 1022,1 hPa 0,0 mm 0,0 km/h (0 Bft) SO 135 -2,7 C 0,0 km/h (0 Bft)
01.10.2015 08:09 -0,6 C -0,4 C 86 % 1022,1 hPa 0,0 mm 0,0 km/h (0 Bft) SO 135 -2,6 C 0,0 km/h (0 Bft)
01.10.2015 08:10 -0,6 C -0,4 C 86 % 1022,1 hPa 0,0 mm 0,0 km/h (0 Bft) SO 135 -2,6 C 0,0 km/h (0 Bft)
01.10.2015 08:15 -0,4 C -0,4 C 86 % 1022,2 hPa 0,0 mm 0,0 km/h (0 Bft) O-SO 112 -2,4 C 0,0 km/h (0 Bft)
01.10.2015 08:20 -0,3 C -0,2 C 86 % 1022,2 hPa 0,0 mm 0,0 km/h (0 Bft) O-SO 112 -2,3 C 0,0 km/h (0 Bft)
01.10.2015 08:25 0,0 C 0,0 C 86 % 1022,2 hPa 0,0 mm 1,0 km/h (0 Bft) N 360 -2,1 C 5,7 km/h (1 Bft)
01.10.2015 08:30 0,2 C 0,3 C 86 % 1022,2 hPa 0,0 mm 3,4 km/h (1 Bft) O-NO 67 -1,9 C 7,0 km/h (2 Bft)
01.10.2015 08:35 0,4 C 0,4 C 86 % 1022,1 hPa 0,0 mm 4,1 km/h (1 Bft) O 90 -1,7 C 0,0 km/h (0 Bft)
01.10.2015 08:40 0,5 C 0,6 C 86 % 1022,1 hPa 0,0 mm 2,1 km/h (1 Bft) W 270 -1,6 C 3,1 km/h (1 Bft)
01.10.2015 08:45 0,6 C 0,9 C 86 % 1022,1 hPa 0,0 mm 1,3 km/h (1 Bft) NO 45 -1,5 C 3,4 km/h (1 Bft)
01.10.2015 08:50 0,8 C 1,1 C 86 % 1022,1 hPa 0,0 mm 2,3 km/h (1 Bft) NO 45 -1,3 C 3,6 km/h (1 Bft)
01.10.2015 08:55 1,0 C 1,4 C 86 % 1022,3 hPa 0,0 mm 2,6 km/h (1 Bft) O-NO 67 -1,1 C 7,8 km/h (2 Bft)
01.10.2015 09:00 1,0 C 1,1 C 86 % 1022,3 hPa 0,0 mm 4,7 km/h (1 Bft) SO 135 -1,1 C 11,7 km/h (2 Bft)
01.10.2015 09:05 1,1 C 1,3 C 86 % 1022,3 hPa 0,0 mm 4,7 km/h (1 Bft) NO 45 -1,0 C 2,6 km/h (1 Bft)
01.10.2015 09:10 1,2 C 3,7 C 87 % 1022,3 hPa 0,0 mm 2,1 km/h (1 Bft) N-NW 337 -0,7 C 0,0 km/h (0 Bft)
01.10.2015 09:15 1,3 C 5,4 C 87 % 1022,4 hPa 0,0 mm 1,0 km/h (0 Bft) O-NO 67 -0,6 C 0,0 km/h (0 Bft)
01.10.2015 09:20 1,3 C 7,2 C 87 % 1022,4 hPa 0,0 mm 0,5 km/h (0 Bft) O-NO 67 -0,6 C 3,1 km/h (1 Bft)
01.10.2015 09:25 1,4 C 7,9 C 87 % 1022,4 hPa 0,0 mm 1,8 km/h (1 Bft) O-NO 67 -0,5 C 6,7 km/h (2 Bft)
01.10.2015 09:30 1,6 C 8,2 C 87 % 1022,4 hPa 0,0 mm 3,9 km/h (1 Bft) O-SO 112 -0,3 C 5,7 km/h (1 Bft)
01.10.2015 09:35 1,7 C 8,8 C 87 % 1022,6 hPa 0,0 mm 3,1 km/h (1 Bft) O 90 -0,2 C 0,0 km/h (0 Bft)
01.10.2015 09:40 1,9 C 10,2 C 87 % 1022,6 hPa 0,0 mm 1,8 km/h (1 Bft) N-NO 22 -0,0 C 6,5 km/h (2 Bft)
01.10.2015 09:45 2,2 C 10,2 C 87 % 1022,6 hPa 0,0 mm 2,3 km/h (1 Bft) O-NO 67 0,3 C 0,0 km/h (0 Bft)
01.10.2015 09:50 2,9 C 11,1 C 93 % 1022,6 hPa 0,0 mm 2,1 km/h (1 Bft) NO 45 1,9 C 0,0 km/h (0 Bft)
01.10.2015 09:55 2,9 C 11,8 C 87 % 1023,8 hPa 0,0 mm 0,8 km/h (0 Bft) O-NO 67 1,0 C 0,0 km/h (0 Bft)
01.10.2015 10:00 3,2 C 12,4 C 86 % 1023,8 hPa 0,0 mm 0,5 km/h (0 Bft) O-NO 67 1,1 C 0,0 km/h (0 Bft)
01.10.2015 10:05 3,4 C 12,3 C 86 % 1023,8 hPa 0,0 mm 1,3 km/h (1 Bft) O-NO 67 1,3 C 0,0 km/h (0 Bft)
01.10.2015 10:10 3,6 C 12,1 C 86 % 1023,8 hPa 0,0 mm 2,1 km/h (1 Bft) O 90 1,5 C 0,0 km/h (0 Bft)
01.10.2015 10:15 4,0 C 12,2 C 86 % 1024,4 hPa 0,0 mm 2,8 km/h (1 Bft) O-NO 67 1,9 C 6,0 km/h (2 Bft)
01.10.2015 10:20 4,2 C 12,5 C 86 % 1024,4 hPa 0,0 mm 2,3 km/h (1 Bft) NO 45 2,1 C 0,0 km/h (0 Bft)
01.10.2015 10:25 4,3 C 13,4 C 85 % 1024,4 hPa 0,0 mm 2,1 km/h (1 Bft) N-NO 22 2,0 C 5,4 km/h (1 Bft)
01.10.2015 10:30 4,6 C 14,6 C 85 % 1024,4 hPa 0,0 mm 0,8 km/h (0 Bft) O-NO 67 2,3 C 0,0 km/h (0 Bft)
01.10.2015 10:35 4,7 C 15,1 C 85 % 1025,2 hPa 0,0 mm 0,8 km/h (0 Bft) NO 45 2,4 C 4,7 km/h (1 Bft)
01.10.2015 10:40 5,5 C 14,9 C 85 % 1025,2 hPa 0,0 mm 2,1 km/h (1 Bft) NO 45 3,2 C 0,0 km/h (0 Bft)
01.10.2015 10:45 6,1 C 14,8 C 83 % 1025,2 hPa 0,0 mm 2,8 km/h (1 Bft) NO 45 3,4 C 5,7 km/h (1 Bft)
01.10.2015 10:50 6,7 C 14,1 C 82 % 1025,2 hPa 0,0 mm 5,2 km/h (1 Bft) O 90 3,8 C 12,2 km/h (2 Bft)
01.10.2015 10:55 7,2 C 14,0 C 81 % 1025,4 hPa 0,0 mm 5,7 km/h (1 Bft) N-NO 22 4,2 C 5,4 km/h (1 Bft)
01.10.2015 11:00 7,9 C 14,6 C 80 % 1025,4 hPa 0,0 mm 4,1 km/h (1 Bft) O-NO 67 4,7 C 0,0 km/h (0 Bft)
01.10.2015 11:05 8,3 C 15,0 C 79 % 1025,4 hPa 0,0 mm 3,9 km/h (1 Bft) O-NO 67 4,9 C 3,1 km/h (1 Bft)
01.10.2015 11:10 8,7 C 15,4 C 78 % 1025,4 hPa 0,0 mm 3,4 km/h (1 Bft) NO 45 5,1 C 11,4 km/h (2 Bft)
01.10.2015 11:15 8,7 C 15,4 C 77 % 1025,7 hPa 0,0 mm 3,9 km/h (1 Bft) NW 315 4,9 C 7,0 km/h (2 Bft)
01.10.2015 11:20 9,1 C 15,5 C 75 % 1025,7 hPa 0,0 mm 4,7 km/h (1 Bft) O-NO 67 4,9 C 7,5 km/h (2 Bft)
01.10.2015 11:25 9,3 C 15,7 C 74 % 1025,7 hPa 0,0 mm 4,4 km/h (1 Bft) N-NW 337 4,9 C 10,4 km/h (2 Bft)
01.10.2015 11:30 9,8 C 15,8 C 72 % 1025,7 hPa 0,0 mm 5,2 km/h (1 Bft) SO 135 5,0 C 14,0 km/h (3 Bft)
01.10.2015 11:35 10,1 C 15,9 C 71 % 1026,1 hPa 0,0 mm 4,4 km/h (1 Bft) O-NO 67 5,1 C 3,9 km/h (1 Bft)
01.10.2015 11:40 10,4 C 16,1 C 70 % 1026,1 hPa 0,0 mm 4,4 km/h (1 Bft) O-SO 112 5,2 C 6,2 km/h (2 Bft)
01.10.2015 11:45 10,7 C 16,3 C 68 % 1026,1 hPa 0,0 mm 4,7 km/h (1 Bft) SO 135 5,0 C 3,6 km/h (1 Bft)
01.10.2015 11:50 10,9 C 16,6 C 67 % 1026,1 hPa 0,0 mm 3,9 km/h (1 Bft) O-NO 67 5,0 C 4,9 km/h (1 Bft)
01.10.2015 11:55 11,1 C 17,0 C 66 % 1026,2 hPa 0,0 mm 3,9 km/h (1 Bft) O-NO 67 5,0 C 5,2 km/h (1 Bft)
01.10.2015 12:00 11,3 C 17,1 C 66 % 1026,2 hPa 0,0 mm 3,9 km/h (1 Bft) O-NO 67 5,2 C 3,1 km/h (1 Bft)
01.10.2015 12:05 11,6 C 17,7 C 65 % 1026,2 hPa 0,0 mm 3,6 km/h (1 Bft) O-NO 67 5,2 C 0,0 km/h (0 Bft)
01.10.2015 12:10 12,0 C 18,3 C 64 % 1026,2 hPa 0,0 mm 2,8 km/h (1 Bft) N 360 5,4 C 2,6 km/h (1 Bft)
01.10.2015 12:15 12,5 C 18,2 C 64 % 1026,4 hPa 0,0 mm 3,4 km/h (1 Bft) O-NO 67 5,9 C 0,0 km/h (0 Bft)
01.10.2015 12:20 12,9 C 18,8 C 63 % 1026,4 hPa 0,0 mm 3,1 km/h (1 Bft) SO 135 6,0 C 2,8 km/h (1 Bft)
01.10.2015 12:25 12,9 C 19,3 C 63 % 1026,4 hPa 0,0 mm 3,1 km/h (1 Bft) O 90 6,0 C 6,7 km/h (2 Bft)
01.10.2015 12:30 13,0 C 18,9 C 60 % 1026,4 hPa 0,0 mm 4,7 km/h (1 Bft) O-NO 67 5,4 C 7,3 km/h (2 Bft)
01.10.2015 12:35 13,1 C 18,9 C 60 % 1026,5 hPa 0,0 mm 4,4 km/h (1 Bft) O 90 5,5 C 3,1 km/h (1 Bft)
01.10.2015 12:41 13,2 C 18,9 C 59 % 1026,5 hPa 0,0 mm 4,9 km/h (1 Bft) O-NO 67 5,4 C 4,1 km/h (1 Bft)
01.10.2015 12:45 13,2 C 18,9 C 59 % 1026,5 hPa 0,0 mm 4,9 km/h (1 Bft) O-NO 67 5,4 C 4,1 km/h (1 Bft)
01.10.2015 12:50 13,0 C 18,1 C 59 % 1026,5 hPa 0,0 mm 7,5 km/h (2 Bft) O-NO 67 5,2 C 21,0 km/h (4 Bft)
01.10.2015 12:55 13,0 C 17,0 C 59 % 1026,3 hPa 0,0 mm 9,1 km/h (2 Bft) O-SO 112 5,2 C 14,0 km/h (3 Bft)
01.10.2015 13:00 13,1 C 15,9 C 59 % 1026,3 hPa 0,0 mm 9,3 km/h (2 Bft) NO 45 5,3 C 9,6 km/h (2 Bft)
01.10.2015 13:05 13,2 C 15,6 C 59 % 1026,3 hPa 0,0 mm 7,5 km/h (2 Bft) O-NO 67 5,4 C 6,0 km/h (2 Bft)
01.10.2015 13:10 13,8 C 15,3 C 60 % 1026,3 hPa 0,0 mm 5,7 km/h (1 Bft) N-NO 22 6,2 C 4,9 km/h (1 Bft)
01.10.2015 13:15 14,3 C 15,4 C 59 % 1026,3 hPa 0,0 mm 6,5 km/h (2 Bft) O-SO 112 6,4 C 11,4 km/h (2 Bft)
01.10.2015 13:20 14,1 C 15,8 C 59 % 1026,3 hPa 0,0 mm 7,8 km/h (2 Bft) S-SO 157 6,2 C 5,7 km/h (1 Bft)
01.10.2015 13:25 14,4 C 16,5 C 59 % 1026,3 hPa 0,0 mm 8,0 km/h (2 Bft) O-NO 67 6,5 C 15,5 km/h (3 Bft)
01.10.2015 13:30 14,2 C 17,4 C 58 % 1026,3 hPa 0,0 mm 7,5 km/h (2 Bft) O-NO 67 6,1 C 6,0 km/h (2 Bft)
01.10.2015 13:35 14,5 C 18,3 C 58 % 1026,2 hPa 0,0 mm 7,8 km/h (2 Bft) O-NO 67 6,3 C 16,3 km/h (3 Bft)
01.10.2015 13:40 14,7 C 18,6 C 57 % 1026,2 hPa 0,0 mm 7,8 km/h (2 Bft) NO 45 6,3 C 10,6 km/h (2 Bft)
01.10.2015 13:45 14,5 C 18,4 C 56 % 1026,2 hPa 0,0 mm 10,6 km/h (2 Bft) N-NO 22 5,8 C 15,0 km/h (3 Bft)
01.10.2015 13:50 14,6 C 18,2 C 57 % 1026,2 hPa 0,0 mm 10,6 km/h (2 Bft) O-NO 67 6,2 C 9,3 km/h (2 Bft)
01.10.2015 13:55 14,6 C 18,5 C 57 % 1026,2 hPa 0,0 mm 9,1 km/h (2 Bft) O-NO 67 6,2 C 14,8 km/h (3 Bft)
01.10.2015 14:00 14,5 C 18,3 C 56 % 1026,2 hPa 0,0 mm 9,3 km/h (2 Bft) N 360 5,8 C 8,8 km/h (2 Bft)
01.10.2015 14:05 14,6 C 18,7 C 56 % 1026,2 hPa 0,0 mm 8,8 km/h (2 Bft) NO 45 5,9 C 15,8 km/h (3 Bft)
01.10.2015 14:10 14,9 C 18,7 C 56 % 1025,9 hPa 0,0 mm 9,8 km/h (2 Bft) NO 45 6,2 C 12,9 km/h (3 Bft)
01.10.2015 14:15 14,9 C 18,7 C 56 % 1025,9 hPa 0,0 mm 9,8 km/h (2 Bft) NO 45 6,2 C 12,9 km/h (3 Bft)
01.10.2015 14:20 14,9 C 18,8 C 56 % 1025,9 hPa 0,0 mm 9,3 km/h (2 Bft) O-NO 67 6,2 C 13,2 km/h (3 Bft)
01.10.2015 14:25 15,0 C 19,0 C 56 % 1025,9 hPa 0,0 mm 7,8 km/h (2 Bft) O-SO 112 6,3 C 11,7 km/h (2 Bft)
01.10.2015 14:30 14,8 C 18,8 C 56 % 1025,9 hPa 0,0 mm 8,0 km/h (2 Bft) NO 45 6,1 C 7,0 km/h (2 Bft)
01.10.2015 14:35 14,8 C 18,8 C 55 % 1025,8 hPa 0,0 mm 9,1 km/h (2 Bft) SO 135 5,8 C 13,2 km/h (3 Bft)
01.10.2015 14:40 15,1 C 19,1 C 56 % 1025,8 hPa 0,0 mm 8,3 km/h (2 Bft) NO 45 6,4 C 21,0 km/h (4 Bft)
01.10.2015 14:45 15,1 C 19,0 C 55 % 1025,8 hPa 0,0 mm 8,0 km/h (2 Bft) N 360 6,1 C 4,1 km/h (1 Bft)
01.10.2015 14:50 15,5 C 19,1 C 55 % 1025,8 hPa 0,0 mm 9,1 km/h (2 Bft) N-NO 22 6,5 C 19,2 km/h (3 Bft)
01.10.2015 14:55 15,5 C 19,0 C 54 % 1025,6 hPa 0,0 mm 8,3 km/h (2 Bft) N-NO 22 6,2 C 10,4 km/h (2 Bft)
01.10.2015 15:00 15,4 C 18,8 C 54 % 1025,6 hPa 0,0 mm 10,4 km/h (2 Bft) NO 45 6,1 C 6,2 km/h (2 Bft)
01.10.2015 15:05 15,6 C 18,8 C 54 % 1025,6 hPa 0,0 mm 10,1 km/h (2 Bft) N 360 6,3 C 15,0 km/h (3 Bft)
01.10.2015 15:10 15,7 C 19,2 C 53 % 1025,6 hPa 0,0 mm 8,0 km/h (2 Bft) O-SO 112 6,1 C 10,6 km/h (2 Bft)
01.10.2015 15:15 15,6 C 19,4 C 54 % 1025,3 hPa 0,0 mm 7,3 km/h (2 Bft) NO 45 6,3 C 12,7 km/h (3 Bft)
01.10.2015 15:20 15,7 C 19,4 C 53 % 1025,3 hPa 0,0 mm 8,0 km/h (2 Bft) O-SO 112 6,1 C 4,9 km/h (1 Bft)
01.10.2015 15:25 15,8 C 19,6 C 53 % 1025,3 hPa 0,0 mm 8,0 km/h (2 Bft) SO 135 6,2 C 16,3 km/h (3 Bft)
01.10.2015 15:30 15,7 C 19,7 C 53 % 1025,3 hPa 0,0 mm 6,5 km/h (2 Bft) O-NO 67 6,1 C 13,2 km/h (3 Bft)
01.10.2015 15:35 15,8 C 19,5 C 53 % 1025,1 hPa 0,0 mm 7,3 km/h (2 Bft) N-NO 22 6,2 C 0,0 km/h (0 Bft)
01.10.2015 15:40 15,8 C 19,6 C 52 % 1025,1 hPa 0,0 mm 8,0 km/h (2 Bft) O-NO 67 6,0 C 6,7 km/h (2 Bft)
01.10.2015 15:45 15,7 C 19,4 C 53 % 1025,1 hPa 0,0 mm 8,0 km/h (2 Bft) N-NO 22 6,1 C 6,2 km/h (2 Bft)
01.10.2015 15:50 15,6 C 19,0 C 52 % 1025,1 hPa 0,0 mm 10,9 km/h (2 Bft) NO 45 5,8 C 24,1 km/h (4 Bft)
01.10.2015 15:55 15,6 C 18,7 C 52 % 1025,0 hPa 0,0 mm 11,1 km/h (2 Bft) O-NO 67 5,8 C 14,0 km/h (3 Bft)
01.10.2015 16:00 15,6 C 18,6 C 53 % 1025,0 hPa 0,0 mm 9,6 km/h (2 Bft) NW 315 6,1 C 10,6 km/h (2 Bft)
01.10.2015 16:05 15,7 C 18,6 C 52 % 1025,0 hPa 0,0 mm 9,1 km/h (2 Bft) N-NO 22 5,9 C 6,0 km/h (2 Bft)
01.10.2015 16:10 15,5 C 18,8 C 53 % 1025,0 hPa 0,0 mm 9,3 km/h (2 Bft) NO 45 6,0 C 19,7 km/h (3 Bft)
01.10.2015 16:15 15,3 C 18,6 C 52 % 1024,8 hPa 0,0 mm 10,1 km/h (2 Bft) O-NO 67 5,5 C 14,8 km/h (3 Bft)
01.10.2015 16:20 15,1 C 18,5 C 53 % 1024,8 hPa 0,0 mm 9,8 km/h (2 Bft) NO 45 5,6 C 7,8 km/h (2 Bft)
01.10.2015 16:25 14,7 C 18,8 C 54 % 1024,8 hPa 0,0 mm 6,7 km/h (2 Bft) O-NO 67 5,5 C 0,0 km/h (0 Bft)
01.10.2015 16:30 14,5 C 19,1 C 54 % 1024,8 hPa 0,0 mm 4,9 km/h (1 Bft) O-NO 67 5,3 C 7,8 km/h (2 Bft)
01.10.2015 16:35 14,4 C 19,0 C 54 % 1024,6 hPa 0,0 mm 7,3 km/h (2 Bft) N-NO 22 5,2 C 20,5 km/h (4 Bft)
01.10.2015 16:40 14,3 C 18,0 C 54 % 1024,6 hPa 0,0 mm 9,3 km/h (2 Bft) O-NO 67 5,1 C 14,0 km/h (3 Bft)
01.10.2015 16:45 14,2 C 16,6 C 54 % 1024,6 hPa 0,0 mm 9,1 km/h (2 Bft) W-SW 247 5,0 C 4,1 km/h (1 Bft)
01.10.2015 16:50 14,1 C 15,4 C 54 % 1024,6 hPa 0,0 mm 9,3 km/h (2 Bft) O-SO 112 4,9 C 5,7 km/h (1 Bft)
01.10.2015 16:55 13,9 C 14,8 C 55 % 1024,3 hPa 0,0 mm 8,5 km/h (2 Bft) O 90 5,0 C 10,9 km/h (2 Bft)
01.10.2015 17:00 13,7 C 14,2 C 55 % 1024,3 hPa 0,0 mm 6,5 km/h (2 Bft) SO 135 4,8 C 14,0 km/h (3 Bft)
01.10.2015 17:05 13,6 C 14,0 C 55 % 1024,3 hPa 0,0 mm 7,0 km/h (2 Bft) N-NO 22 4,7 C 7,3 km/h (2 Bft)
01.10.2015 17:10 13,6 C 14,1 C 55 % 1024,3 hPa 0,0 mm 8,5 km/h (2 Bft) O-NO 67 4,7 C 13,7 km/h (3 Bft)
01.10.2015 17:15 13,4 C 13,9 C 56 % 1024,2 hPa 0,0 mm 8,0 km/h (2 Bft) NO 45 4,8 C 11,4 km/h (2 Bft)
01.10.2015 17:20 13,3 C 13,6 C 56 % 1024,2 hPa 0,0 mm 6,2 km/h (2 Bft) NO 45 4,7 C 8,0 km/h (2 Bft)
01.10.2015 17:25 13,2 C 13,3 C 56 % 1024,2 hPa 0,0 mm 6,5 km/h (2 Bft) O-NO 67 4,6 C 9,3 km/h (2 Bft)
01.10.2015 17:30 13,0 C 13,2 C 56 % 1024,2 hPa 0,0 mm 6,7 km/h (2 Bft) N-NO 22 4,4 C 3,6 km/h (1 Bft)
01.10.2015 17:35 13,0 C 13,1 C 56 % 1024,1 hPa 0,0 mm 5,7 km/h (1 Bft) O-NO 67 4,4 C 8,8 km/h (2 Bft)
01.10.2015 17:40 12,7 C 13,0 C 57 % 1024,1 hPa 0,0 mm 6,0 km/h (2 Bft) O-NO 67 4,4 C 3,1 km/h (1 Bft)
01.10.2015 17:45 12,4 C 12,8 C 57 % 1024,1 hPa 0,0 mm 5,4 km/h (1 Bft) O-NO 67 4,1 C 3,4 km/h (1 Bft)
01.10.2015 17:50 12,4 C 12,6 C 58 % 1024,1 hPa 0,0 mm 3,4 km/h (1 Bft) O-SO 112 4,4 C 5,7 km/h (1 Bft)
01.10.2015 17:55 12,4 C 12,4 C 58 % 1024,0 hPa 0,0 mm 3,4 km/h (1 Bft) NO 45 4,4 C 4,4 km/h (1 Bft)
01.10.2015 18:00 12,3 C 12,3 C 58 % 1024,0 hPa 0,0 mm 3,1 km/h (1 Bft) O-SO 112 4,3 C 8,5 km/h (2 Bft)
01.10.2015 18:05 12,3 C 12,3 C 59 % 1024,0 hPa 0,0 mm 3,1 km/h (1 Bft) O-SO 112 4,5 C 2,8 km/h (1 Bft)
01.10.2015 18:10 12,1 C 12,1 C 59 % 1024,0 hPa 0,0 mm 3,4 km/h (1 Bft) O-SO 112 4,3 C 0,0 km/h (0 Bft)
01.10.2015 18:15 11,6 C 11,7 C 59 % 1023,8 hPa 0,0 mm 1,6 km/h (1 Bft) O-NO 67 3,9 C 0,0 km/h (0 Bft)
01.10.2015 18:20 11,3 C 11,4 C 59 % 1023,8 hPa 0,0 mm 0,0 km/h (0 Bft) O-SO 112 3,6 C 0,0 km/h (0 Bft)
01.10.2015 18:25 11,2 C 11,2 C 61 % 1023,8 hPa 0,0 mm 0,0 km/h (0 Bft) O-SO 112 4,0 C 0,0 km/h (0 Bft)
01.10.2015 18:30 11,1 C 11,1 C 62 % 1023,8 hPa 0,0 mm 2,3 km/h (1 Bft) NO 45 4,1 C 6,2 km/h (2 Bft)
01.10.2015 18:35 11,1 C 11,0 C 62 % 1023,8 hPa 0,0 mm 2,6 km/h (1 Bft) O 90 4,1 C 0,0 km/h (0 Bft)
01.10.2015 18:40 11,1 C 10,9 C 63 % 1023,8 hPa 0,0 mm 1,0 km/h (0 Bft) O-SO 112 4,3 C 0,0 km/h (0 Bft)
01.10.2015 18:45 10,9 C 10,7 C 63 % 1023,8 hPa 0,0 mm 0,8 km/h (0 Bft) NO 45 4,1 C 5,7 km/h (1 Bft)
01.10.2015 18:50 10,6 C 10,5 C 64 % 1023,8 hPa 0,0 mm 0,5 km/h (0 Bft) SO 135 4,1 C 0,0 km/h (0 Bft)
01.10.2015 18:55 10,5 C 10,3 C 64 % 1023,9 hPa 0,0 mm 0,5 km/h (0 Bft) O-SO 112 4,0 C 0,0 km/h (0 Bft)
01.10.2015 19:00 10,5 C 10,3 C 65 % 1023,9 hPa 0,0 mm 0,3 km/h (0 Bft) SO 135 4,2 C 0,0 km/h (0 Bft)
01.10.2015 19:05 10,3 C 10,1 C 65 % 1023,9 hPa 0,0 mm 0,3 km/h (0 Bft) SO 135 4,0 C 0,0 km/h (0 Bft)
01.10.2015 19:10 10,1 C 9,9 C 66 % 1023,9 hPa 0,0 mm 0,0 km/h (0 Bft) O-SO 112 4,0 C 0,0 km/h (0 Bft)
01.10.2015 19:15 10,0 C 9,7 C 67 % 1024,2 hPa 0,0 mm 0,0 km/h (0 Bft) S 180 4,2 C 0,0 km/h (0 Bft)
01.10.2015 19:20 9,8 C 9,5 C 67 % 1024,2 hPa 0,0 mm 0,0 km/h (0 Bft) SO 135 4,0 C 0,0 km/h (0 Bft)
01.10.2015 19:25 9,7 C 9,4 C 67 % 1024,2 hPa 0,0 mm 0,0 km/h (0 Bft) S-SO 157 3,9 C 0,0 km/h (0 Bft)
01.10.2015 19:30 9,2 C 9,0 C 68 % 1024,2 hPa 0,0 mm 0,0 km/h (0 Bft) S 180 3,6 C 0,0 km/h (0 Bft)
01.10.2015 19:35 8,9 C 8,7 C 68 % 1024,1 hPa 0,0 mm 0,0 km/h (0 Bft) S-SO 157 3,3 C 0,0 km/h (0 Bft)
01.10.2015 19:40 8,9 C 8,6 C 70 % 1024,1 hPa 0,0 mm 0,0 km/h (0 Bft) S-SO 157 3,7 C 0,0 km/h (0 Bft)
01.10.2015 19:45 8,7 C 8,4 C 70 % 1024,1 hPa 0,0 mm 0,0 km/h (0 Bft) SO 135 3,5 C 0,0 km/h (0 Bft)
01.10.2015 19:50 8,6 C 8,2 C 71 % 1024,1 hPa 0,0 mm 0,0 km/h (0 Bft) SO 135 3,6 C 0,0 km/h (0 Bft)
01.10.2015 19:55 8,3 C 8,1 C 70 % 1024,4 hPa 0,0 mm 0,0 km/h (0 Bft) S-SO 157 3,2 C 0,0 km/h (0 Bft)
01.10.2015 20:00 8,2 C 8,0 C 72 % 1024,4 hPa 0,0 mm 1,3 km/h (1 Bft) S 180 3,5 C 4,7 km/h (1 Bft)
01.10.2015 20:05 8,1 C 8,0 C 72 % 1024,4 hPa 0,0 mm 2,1 km/h (1 Bft) S 180 3,4 C 2,6 km/h (1 Bft)
01.10.2015 20:10 8,3 C 8,1 C 72 % 1024,5 hPa 0,0 mm 2,6 km/h (1 Bft) SO 135 3,6 C 0,0 km/h (0 Bft)
01.10.2015 20:11 8,3 C 8,1 C 72 % 1024,5 hPa 0,0 mm 2,6 km/h (1 Bft) SO 135 3,6 C 0,0 km/h (0 Bft)
01.10.2015 20:15 8,3 C 8,1 C 72 % 1024,5 hPa 0,0 mm 2,6 km/h (1 Bft) SO 135 3,6 C 0,0 km/h (0 Bft)
01.10.2015 20:20 7,3 C 7,3 C 72 % 1024,5 hPa 0,0 mm 0,8 km/h (0 Bft) SO 135 2,6 C 0,0 km/h (0 Bft)
01.10.2015 20:25 7,1 C 6,9 C 75 % 1024,5 hPa 0,0 mm 0,3 km/h (0 Bft) S 180 3,0 C 2,6 km/h (1 Bft)
01.10.2015 20:30 7,1 C 6,9 C 75 % 1024,5 hPa 0,0 mm 0,3 km/h (0 Bft) S 180 3,0 C 2,6 km/h (1 Bft)
01.10.2015 20:35 7,0 C 6,9 C 73 % 1024,2 hPa 0,0 mm 0,5 km/h (0 Bft) SO 135 2,5 C 0,0 km/h (0 Bft)
01.10.2015 20:40 7,5 C 7,4 C 75 % 1024,2 hPa 0,0 mm 1,6 km/h (1 Bft) O-SO 112 3,4 C 4,4 km/h (1 Bft)
01.10.2015 20:45 7,5 C 7,5 C 75 % 1024,2 hPa 0,0 mm 1,8 km/h (1 Bft) S-SO 157 3,4 C 0,0 km/h (0 Bft)
01.10.2015 20:50 7,7 C 7,6 C 75 % 1024,2 hPa 0,0 mm 1,0 km/h (0 Bft) SO 135 3,6 C 0,0 km/h (0 Bft)
01.10.2015 20:55 7,6 C 7,5 C 75 % 1024,2 hPa 0,0 mm 0,5 km/h (0 Bft) S-SO 157 3,5 C 0,0 km/h (0 Bft)
01.10.2015 21:00 7,7 C 7,5 C 76 % 1024,2 hPa 0,0 mm 0,5 km/h (0 Bft) S-SW 202 3,7 C 0,0 km/h (0 Bft)
01.10.2015 21:05 7,6 C 7,4 C 76 % 1024,2 hPa 0,0 mm 0,5 km/h (0 Bft) O-SO 112 3,6 C 0,0 km/h (0 Bft)
01.10.2015 21:10 7,5 C 7,3 C 76 % 1024,2 hPa 0,0 mm 0,5 km/h (0 Bft) S 180 3,5 C 0,0 km/h (0 Bft)
01.10.2015 21:15 7,0 C 6,9 C 75 % 1024,2 hPa 0,0 mm 0,0 km/h (0 Bft) S-SO 157 2,9 C 0,0 km/h (0 Bft)
01.10.2015 21:20 6,1 C 6,4 C 75 % 1024,2 hPa 0,0 mm 0,0 km/h (0 Bft) SO 135 2,0 C 0,0 km/h (0 Bft)
01.10.2015 21:25 5,9 C 6,0 C 76 % 1024,2 hPa 0,0 mm 0,0 km/h (0 Bft) SO 135 2,0 C 0,0 km/h (0 Bft)
01.10.2015 21:30 5,7 C 5,6 C 77 % 1024,2 hPa 0,0 mm 0,0 km/h (0 Bft) O-SO 112 2,0 C 0,0 km/h (0 Bft)
01.10.2015 21:35 5,7 C 5,6 C 78 % 1023,9 hPa 0,0 mm 0,0 km/h (0 Bft) SO 135 2,2 C 0,0 km/h (0 Bft)
01.10.2015 21:40 5,6 C 5,5 C 78 % 1023,9 hPa 0,0 mm 0,0 km/h (0 Bft) SO 135 2,1 C 0,0 km/h (0 Bft)
01.10.2015 21:45 5,6 C 5,5 C 78 % 1023,9 hPa 0,0 mm 0,0 km/h (0 Bft) SO 135 2,1 C 0,0 km/h (0 Bft)
01.10.2015 21:50 5,4 C 5,3 C 78 % 1023,9 hPa 0,0 mm 0,0 km/h (0 Bft) SO 135 1,9 C 0,0 km/h (0 Bft)
01.10.2015 21:55 5,7 C 5,5 C 77 % 1024,1 hPa 0,0 mm 0,0 km/h (0 Bft) O 90 2,0 C 0,0 km/h (0 Bft)
01.10.2015 22:00 5,6 C 5,4 C 78 % 1024,1 hPa 0,0 mm 0,0 km/h (0 Bft) S-SO 157 2,1 C 0,0 km/h (0 Bft)
01.10.2015 22:05 5,6 C 5,4 C 78 % 1024,1 hPa 0,0 mm 0,0 km/h (0 Bft) S-SW 202 2,1 C 0,0 km/h (0 Bft)
01.10.2015 22:10 5,0 C 4,8 C 80 % 1024,1 hPa 0,0 mm 0,0 km/h (0 Bft) S-SO 157 1,8 C 0,0 km/h (0 Bft)
01.10.2015 22:15 5,3 C 5,1 C 78 % 1023,8 hPa 0,0 mm 0,0 km/h (0 Bft) S-SO 157 1,8 C 0,0 km/h (0 Bft)
01.10.2015 22:20 5,6 C 5,2 C 82 % 1023,8 hPa 0,0 mm 0,0 km/h (0 Bft) S 180 2,8 C 0,0 km/h (0 Bft)
01.10.2015 22:25 5,2 C 5,0 C 81 % 1023,8 hPa 0,0 mm 0,0 km/h (0 Bft) NW 315 2,2 C 0,0 km/h (0 Bft)
01.10.2015 22:30 4,8 C 4,6 C 81 % 1023,8 hPa 0,0 mm 0,5 km/h (0 Bft) W 270 1,8 C 0,0 km/h (0 Bft)
01.10.2015 22:35 5,0 C 4,7 C 82 % 1023,6 hPa 0,0 mm 0,5 km/h (0 Bft) W-SW 247 2,2 C 0,0 km/h (0 Bft)
01.10.2015 22:40 4,5 C 4,4 C 82 % 1023,6 hPa 0,0 mm 0,3 km/h (0 Bft) O-NO 67 1,7 C 0,0 km/h (0 Bft)
01.10.2015 22:45 4,6 C 4,4 C 82 % 1023,6 hPa 0,0 mm 0,3 km/h (0 Bft) NW 315 1,8 C 0,0 km/h (0 Bft)
01.10.2015 22:50 4,5 C 4,3 C 82 % 1023,6 hPa 0,0 mm 0,0 km/h (0 Bft) N-NO 22 1,7 C 0,0 km/h (0 Bft)
01.10.2015 22:55 4,8 C 4,5 C 83 % 1023,4 hPa 0,0 mm 0,0 km/h (0 Bft) O-NO 67 2,2 C 0,0 km/h (0 Bft)
01.10.2015 23:00 4,8 C 4,5 C 84 % 1023,4 hPa 0,0 mm 0,0 km/h (0 Bft) O 90 2,3 C 0,0 km/h (0 Bft)
01.10.2015 23:05 4,7 C 4,4 C 84 % 1023,4 hPa 0,0 mm 0,0 km/h (0 Bft) O 90 2,2 C 0,0 km/h (0 Bft)
01.10.2015 23:10 5,1 C 4,7 C 84 % 1023,4 hPa 0,0 mm 0,0 km/h (0 Bft) S-SO 157 2,6 C 0,0 km/h (0 Bft)
01.10.2015 23:15 5,1 C 4,7 C 85 % 1023,5 hPa 0,0 mm 0,5 km/h (0 Bft) S-SO 157 2,8 C 0,0 km/h (0 Bft)
01.10.2015 23:20 4,6 C 4,4 C 85 % 1023,5 hPa 0,0 mm 0,5 km/h (0 Bft) S-SO 157 2,3 C 0,0 km/h (0 Bft)
01.10.2015 23:25 4,1 C 4,0 C 84 % 1023,5 hPa 0,0 mm 0,0 km/h (0 Bft) O-SO 112 1,6 C 0,0 km/h (0 Bft)
01.10.2015 23:30 3,6 C 3,5 C 84 % 1023,5 hPa 0,0 mm 0,0 km/h (0 Bft) O-SO 112 1,2 C 0,0 km/h (0 Bft)
01.10.2015 23:35 3,5 C 3,3 C 84 % 1023,4 hPa 0,0 mm 0,0 km/h (0 Bft) O-SO 112 1,1 C 0,0 km/h (0 Bft)
01.10.2015 23:40 4,1 C 4,0 C 82 % 1023,4 hPa 0,0 mm 0,3 km/h (0 Bft) S 180 1,3 C 0,0 km/h (0 Bft)
01.10.2015 23:45 4,0 C 3,8 C 85 % 1023,4 hPa 0,0 mm 0,3 km/h (0 Bft) S-SO 157 1,7 C 0,0 km/h (0 Bft)
01.10.2015 23:50 3,5 C 3,4 C 85 % 1023,4 hPa 0,0 mm 0,3 km/h (0 Bft) S 180 1,2 C 0,0 km/h (0 Bft)
01.10.2015 23:55 3,9 C 3,6 C 85 % 1023,2 hPa 0,0 mm 0,0 km/h (0 Bft) S 180 1,6 C 0,0 km/h (0 Bft)
_ Min-Zeit 07:25 07:25 16:15 08:50 - 23:55 - - 07:40 23:55
Minimum _ -1,7 C -2,0 C 52 % 1022,1 hPa - 0,0 km/h (0 Bft) - - -3,6 C 0,0 km/h (0 Bft)
_ Max-Zeit 15:40 15:30 09:50 12:50 23:55 15:55 - - 14:50 15:50
Maximum _ 15,8 C 19,7 C 93 % 1026,5 hPa 0,0 mm 11,1 km/h
O-NO (2 Bft)
- - 6,5 C 24,1 km/h
NO (4 Bft)
Durchschnitt _ 6,1 C 7,6 C 75 % 1024,0 hPa #0,0 mm 2,6 km/h (1 Bft) O-NO - 1,7 C 3,5 km/h (1 Bft)